Time,TemperatureF,DewpointF,PressureIn,WindDirection,WindDirectionDegrees,WindSpeedMPH,WindSpeedGustMPH,Humidity,HourlyPrecipIn,Conditions,Clouds,dailyrainin,SoftwareType,DateUTC
2013-07-10 00:09:00,65.9,64.0,29.94,NE,53,0.0,1.0,92,0.00,,,0.00,weatherlink.com 1.10,2013-07-10 04:09:00,
2013-07-10 00:24:00,65.6,64.0,29.94,East,79,0.0,1.0,93,0.00,,,0.00,weatherlink.com 1.10,2013-07-10 04:24:00,
2013-07-10 00:39:00,65.7,63.0,29.94,ENE,77,0.0,1.0,92,0.00,,,0.00,weatherlink.com 1.10,2013-07-10 04:39:00,
2013-07-10 00:54:00,66.3,64.0,29.93,NE,54,0.0,2.0,92,0.00,,,0.00,weatherlink.com 1.10,2013-07-10 04:54:00,
2013-07-10 01:09:00,66.3,64.0,29.93,North,8,1.0,2.0,93,0.00,,,0.00,weatherlink.com 1.10,2013-07-10 05:09:00,
2013-07-10 01:24:00,67.5,65.0,29.93,North,356,1.0,5.0,92,0.00,,,0.00,weatherlink.com 1.10,2013-07-10 05:24:00,
2013-07-10 01:39:00,68.3,66.0,29.93,NNE,22,0.0,3.0,91,0.00,,,0.00,weatherlink.com 1.10,2013-07-10 05:39:00,
2013-07-10 01:54:00,68.8,66.0,29.92,NNE,12,0.0,3.0,90,0.00,,,0.00,weatherlink.com 1.10,2013-07-10 05:54:00,
2013-07-10 02:09:00,68.6,66.0,29.91,NW,326,1.0,2.0,90,0.00,,,0.00,weatherlink.com 1.10,2013-07-10 06:09:00,
2013-07-10 02:24:00,68.5,66.0,29.90,NE,35,1.0,3.0,90,0.00,,,0.00,weatherlink.com 1.10,2013-07-10 06:24:00,
2013-07-10 02:39:00,68.3,65.0,29.90,North,352,1.0,3.0,90,0.00,,,0.00,weatherlink.com 1.10,2013-07-10 06:39:00,
2013-07-10 02:54:00,68.4,65.0,29.90,NNW,347,0.0,2.0,90,0.00,,,0.00,weatherlink.com 1.10,2013-07-10 06:54:00,
2013-07-10 03:09:00,68.3,65.0,29.90,North,9,0.0,1.0,90,0.00,,,0.00,weatherlink.com 1.10,2013-07-10 07:09:00,
2013-07-10 03:24:00,68.5,66.0,29.89,ENE,58,0.0,2.0,90,0.00,,,0.00,weatherlink.com 1.10,2013-07-10 07:24:00,
2013-07-10 03:39:00,69.0,65.0,29.89,North,5,1.0,3.0,88,0.00,,,0.00,weatherlink.com 1.10,2013-07-10 07:39:00,
2013-07-10 03:54:00,68.8,66.0,29.88,North,6,1.0,2.0,89,0.00,,,0.00,weatherlink.com 1.10,2013-07-10 07:54:00,
2013-07-10 04:09:00,68.8,66.0,29.88,WNW,301,1.0,2.0,89,0.00,,,0.00,weatherlink.com 1.10,2013-07-10 08:09:00,
2013-07-10 04:24:00,69.1,66.0,29.87,NNE,33,0.0,4.0,89,0.00,,,0.00,weatherlink.com 1.10,2013-07-10 08:24:00,
2013-07-10 04:39:00,69.0,66.0,29.88,ENE,72,2.0,2.0,90,0.00,,,0.00,weatherlink.com 1.10,2013-07-10 08:39:00,
2013-07-10 04:54:00,68.9,66.0,29.87,ESE,114,0.0,2.0,90,0.00,,,0.00,weatherlink.com 1.10,2013-07-10 08:54:00,
2013-07-10 05:09:00,69.2,66.0,29.87,NNE,32,2.0,2.0,89,0.00,,,0.00,weatherlink.com 1.10,2013-07-10 09:09:00,
2013-07-10 05:24:00,69.3,66.0,29.87,NNE,13,1.0,3.0,88,0.00,,,0.00,weatherlink.com 1.10,2013-07-10 09:24:00,
2013-07-10 05:39:00,69.4,66.0,29.87,NW,310,0.0,2.0,88,0.00,,,0.00,weatherlink.com 1.10,2013-07-10 09:39:00,
2013-07-10 05:54:00,69.2,66.0,29.87,NW,314,2.0,2.0,88,0.00,,,0.00,weatherlink.com 1.10,2013-07-10 09:54:00,
2013-07-10 06:09:00,69.0,65.0,29.86,North,8,0.0,2.0,88,0.00,,,0.00,weatherlink.com 1.10,2013-07-10 10:09:00,
2013-07-10 06:24:00,69.2,66.0,29.86,WNW,303,1.0,2.0,88,0.00,,,0.00,weatherlink.com 1.10,2013-07-10 10:24:00,
2013-07-10 06:39:00,69.2,65.0,29.86,NE,43,0.0,2.0,87,0.00,,,0.00,weatherlink.com 1.10,2013-07-10 10:39:00,
2013-07-10 06:54:00,69.1,66.0,29.86,ENE,63,2.0,2.0,88,0.00,,,0.00,weatherlink.com 1.10,2013-07-10 10:54:00,
2013-07-10 07:09:00,69.3,65.0,29.85,East,100,0.0,2.0,87,0.00,,,0.00,weatherlink.com 1.10,2013-07-10 11:09:00,
2013-07-10 07:24:00,69.4,66.0,29.85,SW,215,0.0,3.0,88,0.00,,,0.00,weatherlink.com 1.10,2013-07-10 11:24:00,
2013-07-10 07:39:00,69.7,66.0,29.85,NE,43,0.0,3.0,87,0.00,,,0.00,weatherlink.com 1.10,2013-07-10 11:39:00,
2013-07-10 07:54:00,69.7,66.0,29.85,WNW,293,2.0,3.0,88,0.00,,,0.00,weatherlink.com 1.10,2013-07-10 11:54:00,
2013-07-10 08:09:00,69.2,66.0,29.84,NW,313,2.0,3.0,90,0.00,,,0.00,weatherlink.com 1.10,2013-07-10 12:09:00,
2013-07-10 08:24:00,68.6,66.0,29.84,ENE,73,0.0,2.0,91,0.00,,,0.00,weatherlink.com 1.10,2013-07-10 12:24:00,
2013-07-10 08:39:00,68.4,66.0,29.84,East,79,0.0,2.0,93,0.00,,,0.00,weatherlink.com 1.10,2013-07-10 12:39:00,
2013-07-10 08:54:00,68.4,66.0,29.84,ENE,75,0.0,2.0,93,0.00,,,0.00,weatherlink.com 1.10,2013-07-10 12:54:00,
2013-07-10 09:09:00,68.4,66.0,29.83,West,274,0.0,3.0,93,0.00,,,0.00,weatherlink.com 1.10,2013-07-10 13:09:00,
2013-07-10 09:25:00,69.1,67.0,29.83,West,276,0.0,4.0,93,0.00,,,0.00,weatherlink.com 1.10,2013-07-10 13:25:00,
2013-07-10 09:40:00,69.0,67.0,29.83,NE,56,1.0,3.0,93,0.00,,,0.00,weatherlink.com 1.10,2013-07-10 13:40:00,
2013-07-10 09:55:00,68.9,67.0,29.83,WNW,295,1.0,2.0,93,0.00,,,0.00,weatherlink.com 1.10,2013-07-10 13:55:00,
2013-07-10 10:10:00,68.9,67.0,29.83,West,278,1.0,4.0,92,0.00,,,0.00,weatherlink.com 1.10,2013-07-10 14:10:00,
2013-07-10 10:25:00,68.8,67.0,29.83,East,98,1.0,3.0,93,0.00,,,0.00,weatherlink.com 1.10,2013-07-10 14:25:00,
2013-07-10 10:40:00,69.1,67.0,29.82,WNW,283,0.0,4.0,92,0.00,,,0.00,weatherlink.com 1.10,2013-07-10 14:40:00,
2013-07-10 10:55:00,69.0,67.0,29.82,West,278,0.0,2.0,93,0.00,,,0.00,weatherlink.com 1.10,2013-07-10 14:55:00,
2013-07-10 11:10:00,69.7,68.0,29.82,West,274,1.0,4.0,93,0.00,,,0.00,weatherlink.com 1.10,2013-07-10 15:10:00,
2013-07-10 11:25:00,69.4,67.0,29.81,NNW,334,1.0,2.0,92,0.00,,,0.00,weatherlink.com 1.10,2013-07-10 15:25:00,
2013-07-10 11:40:00,69.9,68.0,29.81,WSW,245,0.0,3.0,92,0.00,,,0.00,weatherlink.com 1.10,2013-07-10 15:40:00,
2013-07-10 11:55:00,70.9,68.0,29.80,West,281,2.0,3.0,91,0.00,,,0.00,weatherlink.com 1.10,2013-07-10 15:55:00,
2013-07-10 12:10:00,72.0,69.0,29.79,WNW,284,0.0,3.0,89,0.00,,,0.00,weatherlink.com 1.10,2013-07-10 16:10:00,
2013-07-10 12:25:00,71.6,68.0,29.79,NNE,25,0.0,3.0,89,0.00,,,0.00,weatherlink.com 1.10,2013-07-10 16:25:00,
2013-07-10 12:40:00,71.4,68.0,29.78,WNW,302,0.0,2.0,90,0.00,,,0.00,weatherlink.com 1.10,2013-07-10 16:40:00,
2013-07-10 12:55:00,71.1,68.0,29.78,North,356,0.0,2.0,91,0.00,,,0.00,weatherlink.com 1.10,2013-07-10 16:55:00,
2013-07-10 13:10:00,71.4,69.0,29.77,NNW,346,0.0,1.0,91,0.00,,,0.00,weatherlink.com 1.10,2013-07-10 17:10:00,
2013-07-10 13:25:00,71.5,69.0,29.76,SSE,149,1.0,3.0,90,0.00,,,0.00,weatherlink.com 1.10,2013-07-10 17:25:00,
2013-07-10 13:40:00,71.7,69.0,29.76,West,266,1.0,3.0,90,0.00,,,0.00,weatherlink.com 1.10,2013-07-10 17:40:00,
2013-07-10 13:55:00,71.1,69.0,29.76,West,269,0.0,2.0,92,0.00,,,0.00,weatherlink.com 1.10,2013-07-10 17:55:00,
2013-07-10 14:10:00,70.9,69.0,29.75,WNW,296,1.0,2.0,93,0.00,,,0.00,weatherlink.com 1.10,2013-07-10 18:10:00,
2013-07-10 14:25:00,70.5,69.0,29.75,NE,39,0.0,1.0,94,0.03,,,0.03,weatherlink.com 1.10,2013-07-10 18:25:00,
2013-07-10 14:40:00,70.0,69.0,29.75,West,280,1.0,3.0,95,0.07,,,0.07,weatherlink.com 1.10,2013-07-10 18:40:00,
2013-07-10 14:55:00,69.7,68.0,29.74,West,280,0.0,3.0,95,0.11,,,0.11,weatherlink.com 1.10,2013-07-10 18:55:00,
2013-07-10 15:10:00,69.9,69.0,29.73,WNW,300,0.0,3.0,96,0.12,,,0.12,weatherlink.com 1.10,2013-07-10 19:10:00,
2013-07-10 15:25:00,70.9,70.0,29.72,SSE,149,0.0,2.0,96,0.09,,,0.12,weatherlink.com 1.10,2013-07-10 19:25:00,
2013-07-10 15:41:00,70.9,69.0,29.72,ENE,63,1.0,2.0,94,0.04,,,0.12,weatherlink.com 1.10,2013-07-10 19:41:00,
2013-07-10 15:55:00,70.9,69.0,29.72,NW,319,0.0,3.0,94,0.01,,,0.12,weatherlink.com 1.10,2013-07-10 19:55:00,
2013-07-10 16:10:00,70.6,69.0,29.73,East,82,0.0,2.0,93,0.00,,,0.12,weatherlink.com 1.10,2013-07-10 20:10:00,
2013-07-10 16:25:00,71.0,69.0,29.73,WNW,293,0.0,3.0,94,0.00,,,0.12,weatherlink.com 1.10,2013-07-10 20:25:00,
2013-07-10 16:40:00,70.5,69.0,29.72,West,266,0.0,2.0,94,0.00,,,0.12,weatherlink.com 1.10,2013-07-10 20:40:00,
2013-07-10 16:55:00,70.9,70.0,29.71,ENE,64,1.0,2.0,95,0.00,,,0.12,weatherlink.com 1.10,2013-07-10 20:55:00,
2013-07-10 17:11:00,71.5,70.0,29.71,WNW,297,1.0,4.0,94,0.00,,,0.12,weatherlink.com 1.10,2013-07-10 21:11:00,
2013-07-10 17:25:00,72.2,70.0,29.71,NW,308,0.0,3.0,94,0.00,,,0.12,weatherlink.com 1.10,2013-07-10 21:25:00,
2013-07-10 17:40:00,72.7,71.0,29.69,SE,131,0.0,1.0,93,0.00,,,0.12,weatherlink.com 1.10,2013-07-10 21:40:00,
2013-07-10 17:55:00,72.8,71.0,29.70,West,259,0.0,3.0,93,0.00,,,0.12,weatherlink.com 1.10,2013-07-10 21:55:00,
2013-07-10 18:10:00,72.8,70.0,29.70,WNW,300,0.0,2.0,92,0.00,,,0.12,weatherlink.com 1.10,2013-07-10 22:10:00,
2013-07-10 18:25:00,72.7,71.0,29.70,SE,139,0.0,2.0,93,0.00,,,0.12,weatherlink.com 1.10,2013-07-10 22:25:00,
2013-07-10 18:40:00,73.0,71.0,29.70,WSW,255,0.0,2.0,93,0.00,,,0.12,weatherlink.com 1.10,2013-07-10 22:40:00,
2013-07-10 18:55:00,72.5,70.0,29.71,NE,43,0.0,2.0,92,0.00,,,0.12,weatherlink.com 1.10,2013-07-10 22:55:00,
2013-07-10 19:10:00,72.2,70.0,29.71,NE,46,0.0,3.0,92,0.00,,,0.12,weatherlink.com 1.10,2013-07-10 23:10:00,
2013-07-10 19:25:00,71.7,70.0,29.71,SSE,150,0.0,2.0,93,0.00,,,0.12,weatherlink.com 1.10,2013-07-10 23:25:00,
2013-07-10 19:40:00,71.5,69.0,29.70,West,276,0.0,1.0,93,0.00,,,0.12,weatherlink.com 1.10,2013-07-10 23:40:00,
2013-07-10 19:55:00,71.2,69.0,29.70,ENE,72,0.0,3.0,94,0.00,,,0.12,weatherlink.com 1.10,2013-07-10 23:55:00,
2013-07-10 20:10:00,70.9,69.0,29.70,West,276,0.0,1.0,94,0.00,,,0.12,weatherlink.com 1.10,2013-07-11 00:10:00,
2013-07-10 20:25:00,70.6,69.0,29.70,NE,43,1.0,1.0,94,0.00,,,0.12,weatherlink.com 1.10,2013-07-11 00:25:00,
2013-07-10 20:40:00,70.6,69.0,29.70,ENE,72,1.0,1.0,95,0.00,,,0.12,weatherlink.com 1.10,2013-07-11 00:40:00,
2013-07-10 20:55:00,70.4,69.0,29.71,NNE,27,0.0,2.0,95,0.00,,,0.12,weatherlink.com 1.10,2013-07-11 00:55:00,
2013-07-10 21:10:00,70.4,69.0,29.71,ENE,59,0.0,1.0,95,0.00,,,0.12,weatherlink.com 1.10,2013-07-11 01:10:00,
2013-07-10 21:25:00,70.5,69.0,29.71,NNE,12,0.0,1.0,95,0.00,,,0.12,weatherlink.com 1.10,2013-07-11 01:25:00,
2013-07-10 21:41:00,70.7,69.0,29.72,West,266,0.0,4.0,94,0.00,,,0.12,weatherlink.com 1.10,2013-07-11 01:41:00,
2013-07-10 21:56:00,70.6,69.0,29.72,ESE,117,1.0,4.0,94,0.00,,,0.12,weatherlink.com 1.10,2013-07-11 01:56:00,
2013-07-10 22:11:00,70.6,69.0,29.72,West,259,0.0,3.0,94,0.00,,,0.12,weatherlink.com 1.10,2013-07-11 02:11:00,
2013-07-10 22:26:00,70.6,69.0,29.72,NW,319,0.0,2.0,95,0.00,,,0.12,weatherlink.com 1.10,2013-07-11 02:26:00,
2013-07-10 22:41:00,70.4,69.0,29.72,West,276,0.0,2.0,95,0.00,,,0.12,weatherlink.com 1.10,2013-07-11 02:41:00,
2013-07-10 22:56:00,70.3,69.0,29.72,East,82,1.0,2.0,95,0.00,,,0.12,weatherlink.com 1.10,2013-07-11 02:56:00,
2013-07-10 23:11:00,70.1,69.0,29.71,South,169,0.0,1.0,95,0.00,,,0.12,weatherlink.com 1.10,2013-07-11 03:11:00,
2013-07-10 23:26:00,70.0,69.0,29.71,ESE,117,0.0,3.0,95,0.00,,,0.12,weatherlink.com 1.10,2013-07-11 03:26:00,
2013-07-10 23:41:00,69.9,69.0,29.71,East,101,0.0,2.0,95,0.00,,,0.12,weatherlink.com 1.10,2013-07-11 03:41:00,
2013-07-10 23:56:00,69.9,69.0,29.71,NNW,346,0.0,2.0,95,0.00,,,0.12,weatherlink.com 1.10,2013-07-11 03:56:00,